Location: Newark
(59.4564°N, 26.6917°E)
Time: 11:00:56
(UTC+00:00)

SR - Pass Details

Date: 22 November 2019
Orbit: 573 x 882 km, 66.7° (Epoch: 11 December)

Event Time Altitude Azimuth Distance (km) Brightness Sun altitude
Rises 18:12:43 0° 301° (WNW) 3,442 ? -34.0°
Reaches altitude 10° 18:15:14 10° 306° (NW) 2,527 ? -34.3°
Enters shadow 18:19:06 39° 329° (NNW) 1,307 ? -34.8°
Maximum altitude 18:21:04 56° 24° (NNE) 1,051 - -35.0°
Drops below altitude 10° 18:26:54 10° 103° (ESE) 2,532 - -35.7°
Sets 18:29:25 0° 108° (ESE) 3,449 - -36.0°
